Regional Weather Roundup
Issued by NWS

Home | Current Version | Previous Version | Text Only | Print | Product List | Glossary Off
Versions: 1 2 3 4 5 6 7 8 9 10 11 12 13 14 15 16 17 18 19 20 21 22 23 24 25 26 27 28 29 30 31 32 33 34 35 36 37 38 39 40 41 42 43 44 45 46 47 48 49 50

000
ASUS43 KDTX 252310
RWRMI
MICHIGAN HOURLY REGIONAL WEATHER ROUNDUP
NATIONAL WEATHER SERVICE DETROIT/PONTIAC MI
600 PM EST SUN JAN 25 2015

NOTE: "FAIR" INDICATES FEW OR NO CLOUDS BELOW 12,000 FEET WITH NO
SIGNIFICANT WEATHER AND/OR OBSTRUCTION TO VISIBILITY.

MIZ047>049-052>055-059>063-066>070-074>076-081>083-260000-
SOUTHEAST LOWER MICHIGAN

CITY           SKY/WX    TMP DP  RH WIND       PRES   REMARKS
ADRIAN         LGT SNOW  23  16  74 E18G28    29.90R
ALMA           PTCLDY    19  12  75 NE16      29.98F
ANN ARBOR      CLOUDY    22   8  55 NE15      29.91R
BAD AXE        CLOUDY    18  11  75 NE8       30.03R
DETROIT CITY   MOCLDY    21   8  57 NE15      29.96R
DETROIT        CLOUDY    21   9  59 NE10G18   29.94R
FLINT          PTCLDY    20   7  57 E16       29.98R
GROSSE ILE     CLOUDY    19   9  63 NE14      29.93R
HILLSDALE      LGT SNOW  22  19  88 NE9       29.86R
HOWELL         PTCLDY    20   9  61 NE13      29.92S

CITY           SKY/WX    TMP DP  RH WIND       PRES   REMARKS
JACKSON        CLOUDY    24  13  62 NE10      29.89R
LAMBERTVILLE   CLOUDY    23  10  58 E10G21    29.91R
LANSING        PTCLDY    21  12  68 NE15G22   29.94R
LAPEER         NOT AVBL
MASON          MOCLDY    21  13  71 NE12G18   29.92S
MONROE         CLOUDY    21  12  68 E10G16    29.91R
MT. CLEMENS    CLOUDY    19   9  64 NE10      29.94R
PONTIAC        CLOUDY    18   7  62 NE13      29.93R
PORT HOPE        N/A     20  11  68 NE13      30.01R
PORT HURON     MOCLDY    18   9  68 NE13G18   29.98S
TRI CITIES     CLOUDY    21  13  71 NE13      30.01R
YPSILANTI      CLOUDY    25   9  50 NE18      29.93R
$$
MIZ043>046-050>051-056>058-064>065-071>073-077>080-260000-
SOUTHWEST LOWER MICHIGAN

CITY           SKY/WX    TMP DP  RH WIND       PRES   REMARKS
BATTLE CREEK   CLOUDY    26  12  55 NE17      29.90R
BENTON HARBOR  CLOUDY    24  16  71 NE9       29.90R
BIG RAPIDS     PTCLDY    21   7  53 NE5       29.96R
COLDWATER      LGT SNOW  23  20  91 NE9       29.88R
HOLLAND        PTCLDY    23  11  60 NE9       29.95R
GRAND RAPIDS   PTCLDY    20  10  65 NE14G25   29.94R
KALAMAZOO      MOCLDY    24  12  60 NE12G17   29.90R
MARSHALL       CLOUDY    23  12  64 NE10G17   29.89R
MUSKEGON       PTCLDY    23   9  55 E10       29.98R
$$
MIZ016>042-260000-
NORTHERN LOWER MICHIGAN

CITY           SKY/WX    TMP DP  RH WIND       PRES   REMARKS
ALPENA         PTCLDY    10   4  76 N7        30.07R
BEAVER ISLAND  CLEAR      6  -4  64 CALM      30.08S
BELLAIRE       PTCLDY    16   5  61 N3        30.05S
CADILLAC       MOCLDY    15   0  49 NE6       29.96R
CHARLEVOIX     PTCLDY    14   7  73 N5        30.09S
FRANKFORT      PTCLDY    16   8  70 NE3       30.04S
GAYLORD        PTCLDY    13   1  59 N3        29.99R
GRAYLING       PTCLDY    13   2  60 N5        30.00R
HARBOR SPRINGS PTCLDY    13   3  64 E5        30.06R
HOUGHTON LAKE  MOCLDY    14   2  58 NE6       29.99R
MANISTEE       PTCLDY    18   1  49 NE8       30.03R
OSCODA         MOCLDY    15   8  71 N7        30.04R
PELLSTON       PTCLDY    11   2  67 NE5       30.08R
TRAVERSE CITY  PTCLDY    18   5  57 N5        30.03R
$$
MIZ007>008-015-260000-
EASTERN UPPER MICHIGAN

CITY           SKY/WX    TMP DP  RH WIND       PRES   REMARKS
KINROSS        PTCLDY     7   1  78 N7        30.08R
MACKINAC ISLAN PTCLDY     8   1  70 CALM      30.07R
S. S. MARIE    PTCLDY     6  -5  60 NW5       30.09R
$$
MIZ004>006-011>014-085-260000-
CENTRAL UPPER MICHIGAN

CITY           SKY/WX    TMP DP  RH WIND       PRES   REMARKS
MANISTIQUE     CLEAR     13   3  65 MISG      30.06S
ESCANABA       CLEAR     18   5  57 NE5       30.06S
MENOMINEE      CLEAR     16   7  67 E6        30.06S
SAWYER-GWINN   FLURRIES  16  12  86 E5        30.02F
$$
MIZ001>003-009>011-084-260000-
WESTERN UPPER MICHIGAN

CITY           SKY/WX    TMP DP  RH WIND       PRES   REMARKS
IRON MOUNTAIN  CLEAR     16   5  62 CALM      30.01F
HOUGHTON       CLEAR     13   3  64 CALM      30.03S
COPPER HARBOR    N/A     12   4  70 CALM      30.07F
IRONWOOD       CLOUDY    18   7  62 CALM      29.98S
$$

ABBREVIATIONS USED IN REMARKS
   TC - TEMPERATURE IN CELSIUS
  WCI - WIND CHILL INDEX
   HX - HEAT INDEX
  VSB - VISIBILITY



USA.gov is the U.S. government's official web portal to all federal, state and local government web resources and services.